Time,TemperatureF,DewpointF,PressureIn,WindDirection,WindDirectionDegrees,WindSpeedMPH,WindSpeedGustMPH,Humidity,HourlyPrecipIn,Conditions,Clouds,dailyrainin,SoftwareType,DateUTC
2013-09-28 00:22:00,28.0,24.0,29.91,WNW,282,0.0,0.0,85,0.00,,,0.07,,2013-09-28 06:22:00,
2013-09-28 00:52:00,28.0,24.0,29.92,WNW,282,0.0,0.0,85,0.00,,,0.07,,2013-09-28 06:52:00,
2013-09-28 01:22:00,28.0,24.0,29.90,WNW,282,0.0,0.0,85,0.00,,,0.07,,2013-09-28 07:22:00,
2013-09-28 01:52:00,28.0,24.0,29.90,WNW,282,0.0,0.0,85,0.00,,,0.07,,2013-09-28 07:52:00,
2013-09-28 02:21:00,27.0,23.0,29.93,WNW,282,0.0,0.0,85,0.00,,,0.07,,2013-09-28 08:21:00,
2013-09-28 02:53:00,27.0,23.0,29.93,WNW,282,0.0,0.0,85,0.00,,,0.07,,2013-09-28 08:53:00,
2013-09-28 03:22:00,26.0,22.0,29.95,WNW,282,0.0,0.0,85,0.00,,,0.07,,2013-09-28 09:22:00,
2013-09-28 03:54:00,26.0,22.0,29.95,WNW,282,0.0,0.0,85,0.00,,,0.07,,2013-09-28 09:54:00,
2013-09-28 04:22:00,26.0,22.0,29.94,West,281,0.0,0.0,85,0.00,,,0.07,,2013-09-28 10:22:00,
2013-09-28 04:52:00,26.0,22.0,29.94,West,281,0.0,1.0,85,0.00,,,0.06,,2013-09-28 10:52:00,
2013-09-28 05:22:00,26.0,22.0,29.94,West,281,0.0,0.0,85,0.00,,,0.06,,2013-09-28 11:22:00,
2013-09-28 05:52:00,25.0,21.0,29.95,West,281,0.0,0.0,85,0.00,,,0.06,,2013-09-28 11:52:00,
2013-09-28 06:12:00,25.0,21.0,29.95,West,281,0.0,0.0,85,0.00,,,0.06,,2013-09-28 12:12:00,
2013-09-28 06:22:00,25.0,21.0,29.95,West,281,0.0,0.0,85,0.00,,,0.06,,2013-09-28 12:22:00,
2013-09-28 06:52:00,25.0,21.0,29.96,West,281,0.0,0.0,85,0.00,,,0.05,,2013-09-28 12:52:00,
2013-09-28 07:12:00,25.0,21.0,29.96,West,281,0.0,0.0,86,0.00,,,0.05,,2013-09-28 13:12:00,
2013-09-28 07:21:00,25.0,21.0,29.97,West,281,0.0,0.0,85,0.00,,,0.05,,2013-09-28 13:21:00,
2013-09-28 07:52:00,25.0,21.0,30.00,West,281,0.0,0.0,85,0.00,,,0.05,,2013-09-28 13:52:00,
2013-09-28 08:21:00,27.0,23.0,30.02,West,281,0.0,0.0,86,0.00,,,0.05,,2013-09-28 14:21:00,
2013-09-28 08:52:00,30.0,26.0,29.98,West,280,0.0,0.0,85,0.00,,,0.05,,2013-09-28 14:52:00,
2013-09-28 09:22:00,33.0,28.0,29.98,South,169,3.0,7.0,82,0.00,,,0.05,,2013-09-28 15:22:00,
2013-09-28 09:54:00,36.0,29.0,29.97,SSE,168,3.0,7.0,77,0.00,,,0.05,,2013-09-28 15:54:00,
2013-09-28 10:24:00,38.0,29.0,29.96,SSE,165,2.0,5.0,71,0.00,,,0.05,,2013-09-28 16:24:00,
2013-09-28 10:54:00,41.0,30.0,29.94,SE,137,1.0,5.0,65,0.01,,,0.06,,2013-09-28 16:54:00,
2013-09-28 11:23:00,44.0,31.0,29.93,ESE,113,1.0,3.0,61,0.01,,,0.06,,2013-09-28 17:23:00,
2013-09-28 11:52:00,46.0,30.0,29.90,East,93,3.0,6.0,54,0.02,,,0.08,,2013-09-28 17:52:00,
2013-09-28 12:22:00,48.0,28.0,29.88,East,94,2.0,10.0,46,0.02,,,0.08,,2013-09-28 18:22:00,
2013-09-28 12:52:00,50.0,26.0,29.86,NE,41,2.0,3.0,39,0.00,,,0.08,,2013-09-28 18:52:00,
2013-09-28 13:21:00,51.0,27.0,29.85,NNE,19,3.0,9.0,39,0.00,,,0.08,,2013-09-28 19:21:00,
2013-09-28 13:52:00,53.0,26.0,29.84,North,353,2.0,5.0,35,0.00,,,0.08,,2013-09-28 19:52:00,
2013-09-28 14:22:00,55.0,24.0,29.83,WSW,246,3.0,8.0,30,0.00,,,0.07,,2013-09-28 20:22:00,
2013-09-28 14:52:00,56.0,27.0,29.80,WNW,302,3.0,6.0,32,0.00,,,0.06,,2013-09-28 20:52:00,
2013-09-28 15:22:00,56.0,27.0,29.79,West,278,3.0,6.0,33,0.00,,,0.06,,2013-09-28 21:22:00,
2013-09-28 15:55:00,56.0,27.0,29.79,NW,323,3.0,8.0,33,0.00,,,0.06,,2013-09-28 21:55:00,
2013-09-28 16:23:00,56.0,23.0,29.80,WSW,250,2.0,8.0,28,0.00,,,0.06,,2013-09-28 22:23:00,
2013-09-28 16:54:00,56.0,22.0,29.80,West,261,2.0,5.0,26,0.00,,,0.06,,2013-09-28 22:54:00,
2013-09-28 17:22:00,56.0,22.0,29.79,West,280,2.0,6.0,26,0.00,,,0.06,,2013-09-28 23:22:00,
2013-09-28 17:52:00,56.0,16.0,29.81,WNW,291,2.0,8.0,20,0.00,,,0.06,,2013-09-28 23:52:00,
2013-09-28 18:22:00,56.0,16.0,29.80,West,265,1.0,5.0,20,0.00,,,0.06,,2013-09-29 00:22:00,
2013-09-28 18:43:00,55.0,16.0,29.80,West,272,1.0,7.0,21,0.00,,,0.06,,2013-09-29 00:43:00,
2013-09-28 18:52:00,54.0,19.0,29.81,West,272,0.0,3.0,25,0.00,,,0.06,,2013-09-29 00:52:00,
2013-09-28 19:21:00,50.0,23.0,29.83,West,272,0.0,0.0,35,0.00,,,0.06,,2013-09-29 01:21:00,
2013-09-28 19:52:00,46.0,24.0,29.85,West,272,0.0,1.0,42,0.00,,,0.06,,2013-09-29 01:52:00,
2013-09-28 20:21:00,43.0,26.0,29.82,West,272,0.0,2.0,51,0.00,,,0.06,,2013-09-29 02:21:00,
2013-09-28 20:53:00,41.0,26.0,29.84,West,272,0.0,0.0,55,0.00,,,0.05,,2013-09-29 02:53:00,
2013-09-28 21:23:00,38.0,25.0,29.83,West,272,0.0,0.0,58,0.00,,,0.05,,2013-09-29 03:23:00,
2013-09-28 21:55:00,37.0,25.0,29.83,West,272,0.0,0.0,61,0.00,,,0.05,,2013-09-29 03:55:00,
2013-09-28 22:02:00,-999.0,-99.9,29.84,West,272,0.0,0.0,-999,-99.99,,,-99.99,,2013-09-29 04:02:00,
2013-09-28 22:23:00,36.0,25.0,29.80,West,272,0.0,0.0,64,0.00,,,0.04,,2013-09-29 04:23:00,
2013-09-28 22:54:00,35.0,25.0,29.82,West,272,0.0,0.0,66,0.00,,,0.03,,2013-09-29 04:54:00,
2013-09-28 23:22:00,34.0,25.0,29.80,West,272,0.0,0.0,70,0.00,,,0.03,,2013-09-29 05:22:00,
2013-09-28 23:52:00,33.0,25.0,29.80,West,272,0.0,1.0,72,0.00,,,0.03,,2013-09-29 05:52:00,